﻿測定場所 (Monitoring sites),日付 (Measurement date),時間 (Measurement time),線量率 最大値 (max) μGy/h,線量率 最小値 (min) μGy/h,線量率 平均値 (average) μGy/h,
調布 (Chofu),2020-07-12,23:01～24:00,0.0359,0.0260,0.0315,
調布 (Chofu),2020-07-12,22:01～23:00,0.0286,0.0250,0.0268,
調布 (Chofu),2020-07-12,21:01～22:00,0.0290,0.0257,0.0271,
調布 (Chofu),2020-07-12,20:01～21:00,0.0290,0.0254,0.0271,
調布 (Chofu),2020-07-12,19:01～20:00,0.0287,0.0250,0.0269,
調布 (Chofu),2020-07-12,18:01～19:00,0.0298,0.0258,0.0272,
調布 (Chofu),2020-07-12,17:01～18:00,0.0297,0.0246,0.0275,
調布 (Chofu),2020-07-12,16:01～17:00,0.0297,0.0259,0.0277,
調布 (Chofu),2020-07-12,15:01～16:00,0.0291,0.0253,0.0273,
調布 (Chofu),2020-07-12,14:01～15:00,0.0296,0.0261,0.0276,
調布 (Chofu),2020-07-12,13:01～14:00,0.0297,0.0262,0.0280,
調布 (Chofu),2020-07-12,12:01～13:00,0.0299,0.0254,0.0276,
調布 (Chofu),2020-07-12,11:01～12:00,0.0299,0.0255,0.0276,
調布 (Chofu),2020-07-12,10:01～11:00,0.0294,0.0255,0.0274,
調布 (Chofu),2020-07-12,09:01～10:00,0.0297,0.0261,0.0277,
調布 (Chofu),2020-07-12,08:01～09:00,0.0294,0.0256,0.0278,
調布 (Chofu),2020-07-12,07:01～08:00,0.0296,0.0252,0.0278,
調布 (Chofu),2020-07-12,06:01～07:00,0.0288,0.0242,0.0268,
調布 (Chofu),2020-07-12,05:01～06:00,0.0285,0.0252,0.0271,
調布 (Chofu),2020-07-12,04:01～05:00,0.0295,0.0251,0.0275,
調布 (Chofu),2020-07-12,03:01～04:00,0.0293,0.0248,0.0273,
調布 (Chofu),2020-07-12,02:01～03:00,0.0304,0.0254,0.0274,
調布 (Chofu),2020-07-12,01:01～02:00,0.0350,0.0272,0.0307,
調布 (Chofu),2020-07-12,00:01～01:00,0.0464,0.0329,0.0398,
調布 (Chofu),2020-07-11,23:01～24:00,0.0472,0.0295,0.0399,
調布 (Chofu),2020-07-11,22:01～23:00,0.0315,0.0238,0.0267,
調布 (Chofu),2020-07-11,21:01～22:00,0.0286,0.0245,0.0264,
調布 (Chofu),2020-07-11,20:01～21:00,0.0285,0.0246,0.0264,
調布 (Chofu),2020-07-11,19:01～20:00,0.0277,0.0249,0.0263,
調布 (Chofu),2020-07-11,18:01～19:00,0.0286,0.0240,0.0262,
調布 (Chofu),2020-07-11,17:01～18:00,0.0283,0.0249,0.0267,
調布 (Chofu),2020-07-11,16:01～17:00,0.0291,0.0240,0.0264,
調布 (Chofu),2020-07-11,15:01～16:00,0.0290,0.0253,0.0271,
調布 (Chofu),2020-07-11,14:01～15:00,0.0307,0.0259,0.0285,
調布 (Chofu),2020-07-11,13:01～14:00,0.0316,0.0257,0.0290,
調布 (Chofu),2020-07-11,12:01～13:00,0.0300,0.0255,0.0276,
調布 (Chofu),2020-07-11,11:01～12:00,0.0300,0.0246,0.0270,
調布 (Chofu),2020-07-11,10:01～11:00,0.0292,0.0252,0.0274,
調布 (Chofu),2020-07-11,09:01～10:00,0.0282,0.0247,0.0265,
調布 (Chofu),2020-07-11,08:01～09:00,0.0276,0.0245,0.0263,
調布 (Chofu),2020-07-11,07:01～08:00,0.0278,0.0238,0.0260,
調布 (Chofu),2020-07-11,06:01～07:00,0.0283,0.0234,0.0258,
調布 (Chofu),2020-07-11,05:01～06:00,0.0274,0.0241,0.0259,
調布 (Chofu),2020-07-11,04:01～05:00,0.0281,0.0243,0.0260,
調布 (Chofu),2020-07-11,03:01～04:00,0.0285,0.0240,0.0259,
調布 (Chofu),2020-07-11,02:01～03:00,0.0281,0.0239,0.0258,
調布 (Chofu),2020-07-11,01:01～02:00,0.0286,0.0232,0.0258,
調布 (Chofu),2020-07-11,00:01～01:00,0.0282,0.0247,0.0262,
調布 (Chofu),2020-07-10,23:01～24:00,0.0278,0.0240,0.0259,
調布 (Chofu),2020-07-10,22:01～23:00,0.0277,0.0243,0.0260,
調布 (Chofu),2020-07-10,21:01～22:00,0.0277,0.0245,0.0259,
調布 (Chofu),2020-07-10,20:01～21:00,0.0282,0.0242,0.0259,
調布 (Chofu),2020-07-10,19:01～20:00,0.0283,0.0241,0.0259,
調布 (Chofu),2020-07-10,18:01～19:00,0.0275,0.0237,0.0260,
調布 (Chofu),2020-07-10,17:01～18:00,0.0280,0.0244,0.0262,
調布 (Chofu),2020-07-10,16:01～17:00,0.0276,0.0240,0.0258,
調布 (Chofu),2020-07-10,15:01～16:00,0.0279,0.0237,0.0259,
調布 (Chofu),2020-07-10,14:01～15:00,0.0275,0.0247,0.0259,
調布 (Chofu),2020-07-10,13:01～14:00,0.0284,0.0241,0.0259,
調布 (Chofu),2020-07-10,12:01～13:00,0.0284,0.0247,0.0261,
調布 (Chofu),2020-07-10,11:01～12:00,0.0279,0.0233,0.0260,
調布 (Chofu),2020-07-10,10:01～11:00,0.0296,0.0262,0.0276,
調布 (Chofu),2020-07-10,09:01～10:00,0.0300,0.0263,0.0280,
調布 (Chofu),2020-07-10,08:01～09:00,0.0294,0.0258,0.0277,
調布 (Chofu),2020-07-10,07:01～08:00,0.0300,0.0254,0.0280,
調布 (Chofu),2020-07-10,06:01～07:00,0.0297,0.0254,0.0275,
調布 (Chofu),2020-07-10,05:01～06:00,0.0291,0.0251,0.0268,
調布 (Chofu),2020-07-10,04:01～05:00,0.0293,0.0246,0.0262,
調布 (Chofu),2020-07-10,03:01～04:00,0.0280,0.0240,0.0258,
調布 (Chofu),2020-07-10,02:01～03:00,0.0277,0.0248,0.0261,
調布 (Chofu),2020-07-10,01:01～02:00,0.0287,0.0246,0.0260,
調布 (Chofu),2020-07-10,00:01～01:00,0.0277,0.0238,0.0255,
調布 (Chofu),2020-07-09,23:01～24:00,0.0275,0.0237,0.0256,
調布 (Chofu),2020-07-09,22:01～23:00,0.0275,0.0237,0.0256,
調布 (Chofu),2020-07-09,21:01～22:00,0.0280,0.0235,0.0261,
調布 (Chofu),2020-07-09,20:01～21:00,0.0299,0.0254,0.0273,
調布 (Chofu),2020-07-09,19:01～20:00,0.0312,0.0264,0.0287,
調布 (Chofu),2020-07-09,18:01～19:00,0.0330,0.0280,0.0307,
調布 (Chofu),2020-07-09,17:01～18:00,0.0326,0.0282,0.0303,
調布 (Chofu),2020-07-09,16:01～17:00,0.0310,0.0273,0.0293,
調布 (Chofu),2020-07-09,15:01～16:00,0.0317,0.0243,0.0282,
調布 (Chofu),2020-07-09,14:01～15:00,0.0293,0.0248,0.0268,
調布 (Chofu),2020-07-09,13:01～14:00,0.0281,0.0246,0.0265,
調布 (Chofu),2020-07-09,12:01～13:00,0.0277,0.0244,0.0261,
調布 (Chofu),2020-07-09,11:01～12:00,0.0298,0.0254,0.0274,
調布 (Chofu),2020-07-09,10:01～11:00,0.0306,0.0234,0.0275,
調布 (Chofu),2020-07-09,09:01～10:00,0.0281,0.0244,0.0262,
調布 (Chofu),2020-07-09,08:01～09:00,0.0294,0.0255,0.0274,
調布 (Chofu),2020-07-09,07:01～08:00,0.0326,0.0266,0.0299,
調布 (Chofu),2020-07-09,06:01～07:00,0.0359,0.0302,0.0326,
調布 (Chofu),2020-07-09,05:01～06:00,0.0381,0.0329,0.0355,
調布 (Chofu),2020-07-09,04:01～05:00,0.0436,0.0350,0.0374,
調布 (Chofu),2020-07-09,03:01～04:00,0.0411,0.0350,0.0379,
調布 (Chofu),2020-07-09,02:01～03:00,0.0364,0.0281,0.0330,
調布 (Chofu),2020-07-09,01:01～02:00,0.0316,0.0253,0.0281,
調布 (Chofu),2020-07-09,00:01～01:00,0.0362,0.0287,0.0326,
調布 (Chofu),2020-07-08,23:01～24:00,0.0375,0.0274,0.0321,
調布 (Chofu),2020-07-08,22:01～23:00,0.0293,0.0245,0.0265,
調布 (Chofu),2020-07-08,21:01～22:00,0.0286,0.0247,0.0265,
調布 (Chofu),2020-07-08,20:01～21:00,0.0281,0.0248,0.0264,
調布 (Chofu),2020-07-08,19:01～20:00,0.0286,0.0244,0.0263,
調布 (Chofu),2020-07-08,18:01～19:00,0.0283,0.0250,0.0267,
調布 (Chofu),2020-07-08,17:01～18:00,0.0291,0.0250,0.0265,
調布 (Chofu),2020-07-08,16:01～17:00,0.0282,0.0249,0.0264,
調布 (Chofu),2020-07-08,15:01～16:00,0.0282,0.0246,0.0266,
調布 (Chofu),2020-07-08,14:01～15:00,0.0284,0.0252,0.0266,
調布 (Chofu),2020-07-08,13:01～14:00,0.0288,0.0245,0.0267,
調布 (Chofu),2020-07-08,12:01～13:00,0.0289,0.0247,0.0264,
調布 (Chofu),2020-07-08,11:01～12:00,0.0290,0.0249,0.0268,
調布 (Chofu),2020-07-08,10:01～11:00,0.0286,0.0239,0.0265,
調布 (Chofu),2020-07-08,09:01～10:00,0.0282,0.0243,0.0260,
調布 (Chofu),2020-07-08,08:01～09:00,0.0275,0.0232,0.0258,
調布 (Chofu),2020-07-08,07:01～08:00,0.0272,0.0239,0.0257,
調布 (Chofu),2020-07-08,06:01～07:00,0.0273,0.0237,0.0258,
調布 (Chofu),2020-07-08,05:01～06:00,0.0274,0.0244,0.0260,
調布 (Chofu),2020-07-08,04:01～05:00,0.0288,0.0250,0.0264,
調布 (Chofu),2020-07-08,03:01～04:00,0.0287,0.0244,0.0265,
調布 (Chofu),2020-07-08,02:01～03:00,0.0271,0.0246,0.0258,
調布 (Chofu),2020-07-08,01:01～02:00,0.0283,0.0242,0.0259,
調布 (Chofu),2020-07-08,00:01～01:00,0.0277,0.0238,0.0260,
調布 (Chofu),2020-07-07,23:01～24:00,0.0289,0.0244,0.0262,
調布 (Chofu),2020-07-07,22:01～23:00,0.0287,0.0243,0.0264,
調布 (Chofu),2020-07-07,21:01～22:00,0.0280,0.0246,0.0262,
調布 (Chofu),2020-07-07,20:01～21:00,0.0280,0.0242,0.0260,
調布 (Chofu),2020-07-07,19:01～20:00,0.0283,0.0244,0.0262,
調布 (Chofu),2020-07-07,18:01～19:00,0.0300,0.0259,0.0281,
調布 (Chofu),2020-07-07,17:01～18:00,0.0321,0.0277,0.0302,
調布 (Chofu),2020-07-07,16:01～17:00,0.0318,0.0253,0.0281,
調布 (Chofu),2020-07-07,15:01～16:00,0.0306,0.0245,0.0283,
調布 (Chofu),2020-07-07,14:01～15:00,0.0321,0.0272,0.0297,
調布 (Chofu),2020-07-07,13:01～14:00,0.0329,0.0278,0.0302,
調布 (Chofu),2020-07-07,12:01～13:00,0.0307,0.0262,0.0281,
調布 (Chofu),2020-07-07,11:01～12:00,0.0310,0.0257,0.0286,
調布 (Chofu),2020-07-07,10:01～11:00,0.0305,0.0256,0.0281,
調布 (Chofu),2020-07-07,09:01～10:00,0.0283,0.0248,0.0264,
調布 (Chofu),2020-07-07,08:01～09:00,0.0272,0.0244,0.0258,
調布 (Chofu),2020-07-07,07:01～08:00,0.0280,0.0244,0.0255,
調布 (Chofu),2020-07-07,06:01～07:00,0.0284,0.0236,0.0258,
調布 (Chofu),2020-07-07,05:01～06:00,0.0269,0.0241,0.0256,
調布 (Chofu),2020-07-07,04:01～05:00,0.0287,0.0239,0.0257,
調布 (Chofu),2020-07-07,03:01～04:00,0.0275,0.0244,0.0257,
調布 (Chofu),2020-07-07,02:01～03:00,0.0277,0.0240,0.0257,
調布 (Chofu),2020-07-07,01:01～02:00,0.0277,0.0240,0.0260,
調布 (Chofu),2020-07-07,00:01～01:00,0.0305,0.0254,0.0275,
調布 (Chofu),2020-07-06,23:01～24:00,0.0360,0.0284,0.0317,
調布 (Chofu),2020-07-06,22:01～23:00,0.0394,0.0337,0.0364,
調布 (Chofu),2020-07-06,21:01～22:00,0.0398,0.0344,0.0370,
調布 (Chofu),2020-07-06,20:01～21:00,0.0433,0.0356,0.0391,
調布 (Chofu),2020-07-06,19:01～20:00,0.0453,0.0388,0.0423,
調布 (Chofu),2020-07-06,18:01～19:00,0.0427,0.0258,0.0331,
調布 (Chofu),2020-07-06,17:01～18:00,0.0281,0.0244,0.0261,
調布 (Chofu),2020-07-06,16:01～17:00,0.0287,0.0242,0.0264,
調布 (Chofu),2020-07-06,15:01～16:00,0.0299,0.0251,0.0276,
調布 (Chofu),2020-07-06,14:01～15:00,0.0306,0.0263,0.0278,
調布 (Chofu),2020-07-06,13:01～14:00,0.0310,0.0252,0.0276,
調布 (Chofu),2020-07-06,12:01～13:00,0.0317,0.0264,0.0289,
調布 (Chofu),2020-07-06,11:01～12:00,0.0318,0.0270,0.0293,
調布 (Chofu),2020-07-06,10:01～11:00,0.0346,0.0297,0.0314,
調布 (Chofu),2020-07-06,09:01～10:00,0.0343,0.0293,0.0324,
調布 (Chofu),2020-07-06,08:01～09:00,0.0352,0.0310,0.0331,
調布 (Chofu),2020-07-06,07:01～08:00,0.0370,0.0317,0.0345,
調布 (Chofu),2020-07-06,06:01～07:00,0.0372,0.0324,0.0351,
調布 (Chofu),2020-07-06,05:01～06:00,0.0417,0.0347,0.0373,
調布 (Chofu),2020-07-06,04:01～05:00,0.0360,0.0287,0.0320,
調布 (Chofu),2020-07-06,03:01～04:00,0.0361,0.0301,0.0326,
調布 (Chofu),2020-07-06,02:01～03:00,0.0371,0.0337,0.0356,
調布 (Chofu),2020-07-06,01:01～02:00,0.0360,0.0313,0.0342,
調布 (Chofu),2020-07-06,00:01～01:00,0.0347,0.0290,0.0317,
